New Iberia, LA

10:05 AM CDT on April 26, 2017 (GMT -0500)
Acadiana Regional

Weather History for KARA - September, 2013

Change the Weather History Date:

Sunday, September 22, 2013

  Actual Average Record
Temperature  
Mean Temperature 75 °F 77 °F  
Max Temperature 80 °F 87 °F 94 °F (1980)
Min Temperature 69 °F 68 °F 48 °F (1983)
Degree Days  
Heating Degree Days 0 0  
Month to date heating degree days 0 0  
Since 1 July heating degree days 0 0  
Cooling Degree Days 10 12  
Month to date cooling degree days 431 326  
Year to date cooling degree days 2751 2469  
Growing Degree Days 26 (Base 50)    
Moisture  
Dew Point 67 °F    
Average Humidity 74    
Maximum Humidity 90    
Minimum Humidity 58    
Precipitation  
Precipitation T in 0.14 in 3.12 in (1995)
Month to date precipitation 3.64 3.30  
Year to date precipitation 56.71 44.15  
Sea Level Pressure  
Sea Level Pressure 29.78 in    
Wind  
Wind Speed 9 mph (NE)    
Max Wind Speed 17 mph    
Max Gust Speed 30 mph    
Visibility 10 miles    
Events Rain    
T = Trace of Precipitation, MM = Missing Value Source: NWS Daily Summary

Daily Weather History Graph

Daily Weather History Graph

Search for Another Location

Airport or City:

Trip Planner

Search our weather history database for the weather conditions in past years. The results will help you decide how hot, cold, wet, or windy it might be!

Date:

Astronomy

Sep. 22, 2013 Rise Set
Actual Time 6:56 AM CDT 7:03 PM CDT
Civil Twilight 6:32 AM CDT 7:27 PM CDT
Nautical Twilight 6:04 AM CDT 7:55 PM CDT
Astronomical Twilight 5:36 AM CDT 8:23 PM CDT
Moon 9:11 PM CDT (9/22) 9:59 AM CDT (9/22)
Length of Visible Light 12h 55m
Length of Day
12h 07m
Waning Gibbous, 88% of the Moon is Illuminated
Sep 22
Waning Gibbous
Sep 26
Last Quarter
Oct 4
New
Oct 11
First Quarter
Oct 18
Full

Hourly Weather History & Observations

Time (CDT) Temp. Heat Index Dew Point Humidity Pressure Visibility Wind Dir Wind Speed Gust Speed Precip Events Conditions
12:44 AM 73.4 °F - 66.2 °F 78% 29.77 in 10.0 mi NE 12.7 mph 24.2 mph 0.00 in   Overcast
12:53 AM 73.0 °F - 66.9 °F 81% 29.77 in 10.0 mi NE 13.8 mph - 0.00 in   Overcast
1:38 AM 73.4 °F - 68.0 °F 83% 29.78 in 10.0 mi NE 11.5 mph - N/A   Overcast
1:53 AM 73.0 °F - 68.0 °F 84% 29.78 in 9.0 mi NE 11.5 mph - 0.00 in Rain Light Rain
2:05 AM 73.4 °F - 68.0 °F 83% 29.77 in 10.0 mi NE 11.5 mph - 0.00 in   Overcast
2:53 AM 73.0 °F - 68.0 °F 84% 29.76 in 10.0 mi NE 11.5 mph - 0.00 in   Overcast
3:18 AM 73.4 °F - 68.0 °F 83% 29.76 in 6.0 mi NE 10.4 mph - 0.00 in Rain Light Rain
3:53 AM 72.0 °F - 68.0 °F 87% 29.75 in 10.0 mi NNE 10.4 mph - 0.00 in   Overcast
4:10 AM 71.6 °F - 68.0 °F 88% 29.75 in 7.0 mi NE 11.5 mph - N/A   Overcast
4:36 AM 73.4 °F - 66.2 °F 78% 29.75 in 10.0 mi NE 16.1 mph 21.9 mph N/A   Overcast
4:53 AM 73.0 °F - 66.9 °F 81% 29.75 in 10.0 mi NE 13.8 mph - N/A   Overcast
5:53 AM 73.0 °F - 68.0 °F 84% 29.76 in 10.0 mi NE 12.7 mph - N/A   Overcast
6:17 AM 73.4 °F - 68.0 °F 83% 29.76 in 10.0 mi NE 10.4 mph - N/A   Overcast
6:53 AM 73.0 °F - 68.0 °F 84% 29.77 in 10.0 mi NNE 11.5 mph - N/A   Overcast
7:53 AM 73.0 °F - 68.0 °F 84% 29.79 in 10.0 mi ENE 9.2 mph - N/A   Overcast
8:53 AM 73.0 °F - 66.9 °F 81% 29.81 in 10.0 mi NE 13.8 mph 20.7 mph N/A   Overcast
9:53 AM 73.9 °F - 66.9 °F 79% 29.82 in 10.0 mi NE 12.7 mph 19.6 mph N/A   Overcast
10:21 AM 75.2 °F - 66.2 °F 73% 29.83 in 10.0 mi NE 12.7 mph - N/A   Overcast
10:53 AM 75.9 °F - 64.9 °F 69% 29.83 in 10.0 mi NE 15.0 mph - N/A   Overcast
11:53 AM 79.0 °F - 64.9 °F 62% 29.83 in 10.0 mi ENE 15.0 mph - N/A   Overcast
12:53 PM 78.1 °F - 64.0 °F 62% 29.82 in 10.0 mi NE 13.8 mph - N/A   Overcast
1:53 PM 80.1 °F 81.7 °F 64.0 °F 58% 29.80 in 10.0 mi ENE 12.7 mph - N/A   Overcast
2:53 PM 79.0 °F - 64.9 °F 62% 29.78 in 10.0 mi East 6.9 mph - N/A   Overcast
3:53 PM 80.1 °F 82.1 °F 66.0 °F 62% 29.78 in 10.0 mi ENE 10.4 mph - N/A   Overcast
4:53 PM 79.0 °F - 66.0 °F 64% 29.77 in 10.0 mi ENE 6.9 mph - N/A   Overcast
5:53 PM 79.0 °F - 66.9 °F 66% 29.78 in 10.0 mi NNE 6.9 mph - N/A   Overcast
6:53 PM 77.0 °F - 66.9 °F 71% 29.78 in 10.0 mi ENE 4.6 mph - N/A   Scattered Clouds
7:53 PM 75.0 °F - 66.9 °F 76% 29.79 in 10.0 mi ENE 4.6 mph - N/A   Clear
8:53 PM 73.9 °F - 68.0 °F 82% 29.79 in 10.0 mi Calm Calm - N/A   Clear
9:53 PM 73.0 °F - 66.9 °F 81% 29.80 in 10.0 mi North 4.6 mph - N/A   Clear
10:53 PM 72.0 °F - 68.0 °F 87% 29.81 in 10.0 mi North 4.6 mph - N/A   Clear
11:53 PM 71.1 °F - 64.9 °F 81% 29.82 in 10.0 mi North 3.5 mph - N/A   Clear